,,PressureMeas_1m,,PRMeasQMR101_1,,RHStat155_1m_1,,SRMeasQMS101R_1m,,TAStat155_1m_1,,GenWind_1,,GenWind_1,
2018-07-28, 07:00:06,VALID,917.375,VALID,0.0,VALID,99.177,VALID,88.006,VALID,18.084,VALID,123.0,VALID,1.899,
2018-07-28, 07:01:06,VALID,917.387,VALID,0.0,VALID,99.181,VALID,87.244,VALID,18.094,VALID,120.0,VALID,1.971,
2018-07-28, 07:02:06,VALID,917.397,VALID,0.0,VALID,99.193,VALID,83.838,VALID,18.103,VALID,119.0,VALID,2.179,
2018-07-28, 07:03:06,VALID,917.393,VALID,0.0,VALID,99.176,VALID,78.578,VALID,18.112,VALID,121.0,VALID,1.87,
2018-07-28, 07:04:06,VALID,917.413,VALID,0.0,VALID,99.159,VALID,75.749,VALID,18.133,VALID,120.0,VALID,2.043,
2018-07-28, 07:05:06,VALID,917.433,VALID,0.0,VALID,99.16,VALID,76.807,VALID,18.144,VALID,123.0,VALID,1.544,
2018-07-28, 07:06:06,VALID,917.459,VALID,0.0,VALID,99.164,VALID,79.346,VALID,18.161,VALID,128.0,VALID,1.649,
2018-07-28, 07:07:06,VALID,917.487,VALID,0.0,VALID,99.141,VALID,82.184,VALID,18.159,VALID,126.0,VALID,1.631,
2018-07-28, 07:08:06,VALID,917.512,VALID,0.0,VALID,99.143,VALID,87.048,VALID,18.174,VALID,128.0,VALID,1.988,
2018-07-28, 07:09:06,VALID,917.53,VALID,0.0,VALID,99.138,VALID,88.817,VALID,18.187,VALID,132.0,VALID,1.989,
2018-07-28, 07:10:06,VALID,917.546,VALID,0.0,VALID,99.151,VALID,88.592,VALID,18.236,VALID,133.0,VALID,2.011,
2018-07-28, 07:11:06,VALID,917.565,VALID,0.0,VALID,99.094,VALID,86.167,VALID,18.225,VALID,120.0,VALID,2.023,
2018-07-28, 07:12:06,VALID,917.563,VALID,0.0,VALID,99.06,VALID,82.574,VALID,18.202,VALID,119.0,VALID,1.666,
2018-07-28, 07:13:06,VALID,917.57,VALID,0.0,VALID,99.06,VALID,79.12,VALID,18.216,VALID,126.0,VALID,1.788,
2018-07-28, 07:14:06,VALID,917.573,VALID,0.0,VALID,99.058,VALID,77.613,VALID,18.254,VALID,130.0,VALID,1.932,
2018-07-28, 07:15:06,VALID,917.576,VALID,0.0,VALID,98.992,VALID,78.237,VALID,18.248,VALID,125.0,VALID,2.329,
2018-07-28, 07:16:06,VALID,917.59,VALID,0.0,VALID,98.961,VALID,80.543,VALID,18.255,VALID,130.0,VALID,2.239,
2018-07-28, 07:17:06,VALID,917.609,VALID,0.0,VALID,98.92,VALID,84.928,VALID,18.287,VALID,128.0,VALID,1.927,
2018-07-28, 07:18:06,VALID,917.624,VALID,0.0,VALID,98.855,VALID,89.7,VALID,18.315,VALID,132.0,VALID,1.964,
2018-07-28, 07:19:06,VALID,917.633,VALID,0.0,VALID,98.826,VALID,92.753,VALID,18.333,VALID,129.0,VALID,2.179,
2018-07-28, 07:20:06,VALID,917.639,VALID,0.0,VALID,98.765,VALID,94.912,VALID,18.324,VALID,123.0,VALID,2.015,
2018-07-28, 07:21:06,VALID,917.644,VALID,0.0,VALID,98.732,VALID,100.527,VALID,18.338,VALID,130.0,VALID,2.093,
2018-07-28, 07:22:06,VALID,917.651,VALID,0.0,VALID,98.733,VALID,107.737,VALID,18.358,VALID,125.0,VALID,1.896,
2018-07-28, 07:23:06,VALID,917.678,VALID,0.0,VALID,98.683,VALID,112.141,VALID,18.357,VALID,124.0,VALID,1.885,
2018-07-28, 07:24:06,VALID,917.692,VALID,0.0,VALID,98.664,VALID,117.37,VALID,18.363,VALID,125.0,VALID,1.849,
2018-07-28, 07:25:06,VALID,917.728,VALID,0.0,VALID,98.615,VALID,122.091,VALID,18.387,VALID,120.0,VALID,1.615,
2018-07-28, 07:26:06,VALID,917.772,VALID,0.0,VALID,98.587,VALID,128.709,VALID,18.431,VALID,116.0,VALID,1.736,
2018-07-28, 07:27:06,VALID,917.803,VALID,0.0,VALID,98.508,VALID,137.879,VALID,18.485,VALID,119.0,VALID,1.182,
2018-07-28, 07:28:06,VALID,917.846,VALID,0.0,VALID,98.415,VALID,143.412,VALID,18.531,VALID,118.0,VALID,1.446,
2018-07-28, 07:29:06,VALID,917.866,VALID,0.0,VALID,98.262,VALID,150.498,VALID,18.552,VALID,111.0,VALID,1.475,
2018-07-28, 07:30:06,VALID,917.886,VALID,0.0,VALID,98.258,VALID,161.971,VALID,18.652,VALID,96.0,VALID,1.132,
2018-07-28, 07:31:06,VALID,917.917,VALID,0.0,VALID,98.172,VALID,161.128,VALID,18.735,VALID,78.0,VALID,1.026,
2018-07-28, 07:32:06,VALID,917.943,VALID,0.0,VALID,98.069,VALID,153.936,VALID,18.843,VALID,76.0,VALID,1.226,
2018-07-28, 07:33:06,VALID,917.978,VALID,0.0,VALID,97.83,VALID,136.417,VALID,18.914,VALID,74.0,VALID,0.889,
2018-07-28, 07:34:06,VALID,918.001,VALID,0.0,VALID,97.417,VALID,132.285,VALID,18.923,VALID,90.0,VALID,1.068,
2018-07-28, 07:35:06,VALID,918.024,VALID,0.0,VALID,97.23,VALID,149.329,VALID,18.993,VALID,76.0,VALID,0.823,
2018-07-28, 07:36:06,VALID,918.056,VALID,0.0,VALID,97.312,VALID,172.705,VALID,19.129,VALID,59.0,VALID,0.974,
2018-07-28, 07:37:06,VALID,918.073,VALID,0.0,VALID,97.018,VALID,184.34,VALID,19.174,VALID,68.0,VALID,1.147,
2018-07-28, 07:38:06,VALID,918.096,VALID,0.0,VALID,96.276,VALID,173.33,VALID,19.141,VALID,46.0,VALID,1.157,
2018-07-28, 07:39:06,VALID,918.113,VALID,0.0,VALID,96.465,VALID,167.723,VALID,19.225,VALID,67.0,VALID,0.928,
2018-07-28, 07:40:06,VALID,918.111,VALID,0.0,VALID,96.177,VALID,165.762,VALID,19.23,VALID,76.0,VALID,1.445,
2018-07-28, 07:41:06,VALID,918.123,VALID,0.0,VALID,95.126,VALID,162.06,VALID,19.09,VALID,87.0,VALID,1.698,
2018-07-28, 07:42:06,VALID,918.125,VALID,0.0,VALID,95.535,VALID,155.474,VALID,19.037,VALID,86.0,VALID,1.268,
2018-07-28, 07:43:06,VALID,918.128,VALID,0.0,VALID,95.797,VALID,161.276,VALID,18.996,VALID,95.0,VALID,1.461,
2018-07-28, 07:44:06,VALID,918.125,VALID,0.0,VALID,95.914,VALID,171.866,VALID,18.973,VALID,97.0,VALID,1.522,
2018-07-28, 07:45:06,VALID,918.147,VALID,0.0,VALID,95.91,VALID,178.774,VALID,18.958,VALID,91.0,VALID,1.696,
2018-07-28, 07:46:06,VALID,918.137,VALID,0.0,VALID,95.959,VALID,191.426,VALID,18.937,VALID,88.0,VALID,1.455,
2018-07-28, 07:47:06,VALID,918.153,VALID,0.0,VALID,96.421,VALID,200.399,VALID,19.014,VALID,97.0,VALID,1.243,
2018-07-28, 07:48:06,VALID,918.158,VALID,0.0,VALID,96.661,VALID,212.803,VALID,19.118,VALID,99.0,VALID,1.418,
2018-07-28, 07:49:06,VALID,918.167,VALID,0.0,VALID,96.123,VALID,228.253,VALID,19.171,VALID,97.0,VALID,1.568,
2018-07-28, 07:50:06,VALID,918.17,VALID,0.0,VALID,95.798,VALID,239.9,VALID,19.237,VALID,104.0,VALID,1.536,
2018-07-28, 07:51:06,VALID,918.186,VALID,0.0,VALID,95.402,VALID,265.101,VALID,19.306,VALID,96.0,VALID,1.362,
2018-07-28, 07:52:06,VALID,918.207,VALID,0.0,VALID,95.194,VALID,278.128,VALID,19.41,VALID,99.0,VALID,1.316,
2018-07-28, 07:53:06,VALID,918.222,VALID,0.0,VALID,94.079,VALID,283.117,VALID,19.476,VALID,102.0,VALID,1.341,
2018-07-28, 07:54:06,VALID,918.236,VALID,0.0,VALID,94.38,VALID,288.075,VALID,19.573,VALID,107.0,VALID,1.299,
2018-07-28, 07:55:06,VALID,918.24,VALID,0.0,VALID,93.665,VALID,296.586,VALID,19.625,VALID,104.0,VALID,1.121,
2018-07-28, 07:56:06,VALID,918.257,VALID,0.0,VALID,93.561,VALID,291.827,VALID,19.68,VALID,113.0,VALID,1.332,
2018-07-28, 07:57:06,VALID,918.256,VALID,0.0,VALID,93.412,VALID,292.583,VALID,19.704,VALID,113.0,VALID,1.202,
2018-07-28, 07:58:06,VALID,918.266,VALID,0.0,VALID,93.471,VALID,251.594,VALID,19.775,VALID,92.0,VALID,1.009,
2018-07-28, 07:59:06,VALID,918.289,VALID,0.0,VALID,92.931,VALID,177.572,VALID,19.865,VALID,80.0,VALID,1.135,
2018-07-28, 08:00:06,VALID,918.304,VALID,0.0,VALID,93.061,VALID,181.371,VALID,19.956,VALID,110.0,VALID,0.991,
2018-07-28, 08:01:06,VALID,918.332,VALID,0.0,VALID,92.476,VALID,189.582,VALID,20.0,VALID,101.0,VALID,0.689,
2018-07-28, 08:02:06,VALID,918.348,VALID,0.0,VALID,93.161,VALID,209.849,VALID,20.108,VALID,89.0,VALID,0.781,
2018-07-28, 08:03:06,VALID,918.378,VALID,0.0,VALID,92.177,VALID,186.822,VALID,20.154,VALID,94.0,VALID,0.687,
2018-07-28, 08:04:06,VALID,918.389,VALID,0.0,VALID,92.487,VALID,173.816,VALID,20.229,VALID,66.0,VALID,0.841,
2018-07-28, 08:05:06,VALID,918.413,VALID,0.0,VALID,91.318,VALID,170.824,VALID,20.227,VALID,62.0,VALID,0.992,
2018-07-28, 08:06:06,VALID,918.421,VALID,0.0,VALID,90.962,VALID,188.631,VALID,20.168,VALID,65.0,VALID,0.898,
2018-07-28, 08:07:06,VALID,918.428,VALID,0.0,VALID,91.828,VALID,230.862,VALID,20.169,VALID,68.0,VALID,0.773,
2018-07-28, 08:08:06,VALID,918.437,VALID,0.0,VALID,91.571,VALID,221.253,VALID,20.191,VALID,62.0,VALID,0.602,
2018-07-28, 08:09:06,VALID,918.424,VALID,0.0,VALID,92.13,VALID,225.623,VALID,20.23,VALID,48.0,VALID,0.599,
2018-07-28, 08:10:06,VALID,918.426,VALID,0.0,VALID,91.509,VALID,372.994,VALID,20.292,VALID,48.0,VALID,0.599,
2018-07-28, 08:11:06,VALID,918.418,VALID,0.0,VALID,91.409,VALID,442.884,VALID,20.4,VALID,58.0,VALID,0.711,
2018-07-28, 08:12:06,VALID,918.406,VALID,0.0,VALID,90.297,VALID,439.16,VALID,20.516,VALID,60.0,VALID,0.532,
2018-07-28, 08:13:06,VALID,918.393,VALID,0.0,VALID,91.604,VALID,436.453,VALID,20.704,VALID,79.0,VALID,0.162,
2018-07-28, 08:14:06,VALID,918.388,VALID,0.0,VALID,89.295,VALID,431.747,VALID,20.906,VALID,111.0,VALID,0.194,
2018-07-28, 08:15:06,VALID,918.386,VALID,0.0,VALID,88.45,VALID,424.799,VALID,21.157,VALID,109.0,VALID,0.15,
2018-07-28, 08:16:06,VALID,918.382,VALID,0.0,VALID,87.522,VALID,415.537,VALID,21.411,VALID,124.0,VALID,0.0,
2018-07-28, 08:17:06,VALID,918.381,VALID,0.0,VALID,86.429,VALID,414.349,VALID,21.546,VALID,118.0,VALID,0.009,
2018-07-28, 08:18:06,VALID,918.385,VALID,0.0,VALID,86.002,VALID,426.681,VALID,21.75,VALID,94.0,VALID,0.409,
2018-07-28, 08:19:06,VALID,918.385,VALID,0.0,VALID,83.032,VALID,431.209,VALID,21.845,VALID,119.0,VALID,0.413,
2018-07-28, 08:20:06,VALID,918.371,VALID,0.0,VALID,83.75,VALID,436.912,VALID,21.914,VALID,141.0,VALID,0.454,
2018-07-28, 08:21:06,VALID,918.368,VALID,0.0,VALID,83.075,VALID,442.575,VALID,22.029,VALID,129.0,VALID,0.693,
2018-07-28, 08:22:06,VALID,918.359,VALID,0.0,VALID,83.041,VALID,436.532,VALID,22.035,VALID,109.0,VALID,0.671,
2018-07-28, 08:23:06,VALID,918.362,VALID,0.0,VALID,83.214,VALID,448.303,VALID,22.021,VALID,117.0,VALID,1.018,
2018-07-28, 08:24:06,VALID,918.353,VALID,0.0,VALID,84.028,VALID,460.976,VALID,22.015,VALID,125.0,VALID,1.061,
2018-07-28, 08:25:06,VALID,918.355,VALID,0.0,VALID,84.428,VALID,453.331,VALID,21.977,VALID,135.0,VALID,0.932,
2018-07-28, 08:26:06,VALID,918.369,VALID,0.0,VALID,84.133,VALID,450.206,VALID,21.915,VALID,133.0,VALID,0.77,
2018-07-28, 08:27:06,VALID,918.388,VALID,0.0,VALID,85.298,VALID,454.77,VALID,21.96,VALID,132.0,VALID,0.851,
2018-07-28, 08:28:06,VALID,918.394,VALID,0.0,VALID,84.899,VALID,442.567,VALID,22.081,VALID,135.0,VALID,0.847,
2018-07-28, 08:29:06,VALID,918.416,VALID,0.0,VALID,84.535,VALID,428.424,VALID,22.179,VALID,142.0,VALID,0.762,
2018-07-28, 08:30:06,VALID,918.41,VALID,0.0,VALID,83.768,VALID,437.258,VALID,22.11,VALID,133.0,VALID,0.634,
2018-07-28, 08:31:06,VALID,918.403,VALID,0.0,VALID,84.852,VALID,422.178,VALID,22.207,VALID,111.0,VALID,0.426,
2018-07-28, 08:32:06,VALID,918.398,VALID,0.0,VALID,83.688,VALID,436.118,VALID,22.478,VALID,172.0,VALID,0.173,
2018-07-28, 08:33:06,VALID,918.391,VALID,0.0,VALID,81.924,VALID,427.999,VALID,22.718,VALID,134.0,VALID,0.531,
2018-07-28, 08:34:06,VALID,918.399,VALID,0.0,VALID,79.655,VALID,435.135,VALID,22.739,VALID,121.0,VALID,1.091,
2018-07-28, 08:35:06,VALID,918.401,VALID,0.0,VALID,80.651,VALID,425.988,VALID,22.489,VALID,128.0,VALID,1.189,
2018-07-28, 08:36:06,VALID,918.411,VALID,0.0,VALID,81.486,VALID,422.19,VALID,22.277,VALID,122.0,VALID,1.11,
2018-07-28, 08:37:06,VALID,918.418,VALID,0.0,VALID,82.072,VALID,411.25,VALID,22.155,VALID,128.0,VALID,1.096,
2018-07-28, 08:38:06,VALID,918.42,VALID,0.0,VALID,83.113,VALID,397.639,VALID,22.134,VALID,126.0,VALID,1.04,
2018-07-28, 08:39:06,VALID,918.43,VALID,0.0,VALID,82.666,VALID,398.873,VALID,22.18,VALID,135.0,VALID,0.892,
2018-07-28, 08:40:06,VALID,918.439,VALID,0.0,VALID,81.553,VALID,395.129,VALID,22.232,VALID,132.0,VALID,1.148,
2018-07-28, 08:41:06,VALID,918.452,VALID,0.0,VALID,81.067,VALID,388.684,VALID,22.22,VALID,130.0,VALID,1.093,
2018-07-28, 08:42:06,VALID,918.466,VALID,0.0,VALID,81.451,VALID,397.537,VALID,22.091,VALID,128.0,VALID,0.825,
2018-07-28, 08:43:06,VALID,918.481,VALID,0.0,VALID,81.882,VALID,381.102,VALID,22.107,VALID,131.0,VALID,0.468,
2018-07-28, 08:44:06,VALID,918.473,VALID,0.0,VALID,80.884,VALID,377.329,VALID,22.333,VALID,131.0,VALID,0.764,
2018-07-28, 08:45:06,VALID,918.482,VALID,0.0,VALID,80.746,VALID,380.561,VALID,22.466,VALID,121.0,VALID,0.81,
2018-07-28, 08:46:06,VALID,918.486,VALID,0.0,VALID,80.486,VALID,383.175,VALID,22.496,VALID,137.0,VALID,0.556,
2018-07-28, 08:47:06,VALID,918.47,VALID,0.0,VALID,80.722,VALID,431.608,VALID,22.577,VALID,141.0,VALID,0.304,
2018-07-28, 08:48:06,VALID,918.466,VALID,0.0,VALID,77.9,VALID,452.204,VALID,22.623,VALID,134.0,VALID,0.298,
2018-07-28, 08:49:06,VALID,918.444,VALID,0.0,VALID,79.428,VALID,452.69,VALID,22.773,VALID,140.0,VALID,0.236,
2018-07-28, 08:50:06,VALID,918.436,VALID,0.0,VALID,79.062,VALID,472.892,VALID,23.025,VALID,148.0,VALID,0.274,
2018-07-28, 08:51:06,VALID,918.432,VALID,0.0,VALID,78.587,VALID,471.604,VALID,23.323,VALID,149.0,VALID,0.117,
2018-07-28, 08:52:06,VALID,918.435,VALID,0.0,VALID,77.204,VALID,457.223,VALID,23.535,VALID,122.0,VALID,0.606,
2018-07-28, 08:53:06,VALID,918.431,VALID,0.0,VALID,76.759,VALID,457.657,VALID,23.6,VALID,152.0,VALID,0.207,
2018-07-28, 08:54:06,VALID,918.449,VALID,0.0,VALID,76.622,VALID,465.336,VALID,23.786,VALID,85.0,VALID,0.462,
2018-07-28, 08:55:06,VALID,918.452,VALID,0.0,VALID,73.175,VALID,465.814,VALID,23.926,VALID,108.0,VALID,0.712,
2018-07-28, 08:56:06,VALID,918.463,VALID,0.0,VALID,75.001,VALID,478.581,VALID,23.895,VALID,115.0,VALID,0.645,
2018-07-28, 08:57:06,VALID,918.479,VALID,0.0,VALID,73.837,VALID,504.725,VALID,23.791,VALID,129.0,VALID,0.566,
2018-07-28, 08:58:06,VALID,918.481,VALID,0.0,VALID,75.769,VALID,507.787,VALID,23.847,VALID,123.0,VALID,0.197,
2018-07-28, 08:59:06,VALID,918.488,VALID,0.0,VALID,74.385,VALID,525.354,VALID,24.024,VALID,175.0,VALID,0.523,
2018-07-28, 09:00:06,VALID,918.485,VALID,0.0,VALID,73.249,VALID,522.724,VALID,23.86,VALID,164.0,VALID,0.213,
2018-07-28, 09:01:06,VALID,918.471,VALID,0.0,VALID,72.927,VALID,524.758,VALID,23.701,VALID,167.0,VALID,0.107,
2018-07-28, 09:02:06,VALID,918.474,VALID,0.0,VALID,73.176,VALID,508.902,VALID,23.601,VALID,201.0,VALID,0.265,
2018-07-28, 09:03:06,VALID,918.473,VALID,0.0,VALID,74.041,VALID,495.741,VALID,23.535,VALID,190.0,VALID,0.092,
2018-07-28, 09:04:06,VALID,918.478,VALID,0.0,VALID,75.339,VALID,485.441,VALID,23.461,VALID,218.0,VALID,0.208,
2018-07-28, 09:05:06,VALID,918.486,VALID,0.0,VALID,74.697,VALID,490.677,VALID,23.334,VALID,188.0,VALID,0.596,
2018-07-28, 09:06:06,VALID,918.503,VALID,0.0,VALID,75.702,VALID,494.952,VALID,23.123,VALID,178.0,VALID,0.427,
2018-07-28, 09:07:06,VALID,918.496,VALID,0.0,VALID,77.054,VALID,496.302,VALID,23.031,VALID,246.0,VALID,0.742,
2018-07-28, 09:08:06,VALID,918.507,VALID,0.0,VALID,75.451,VALID,539.516,VALID,22.859,VALID,242.0,VALID,0.512,
2018-07-28, 09:09:06,VALID,918.516,VALID,0.0,VALID,76.899,VALID,575.46,VALID,22.876,VALID,311.0,VALID,0.408,
2018-07-28, 09:10:06,VALID,918.521,VALID,0.0,VALID,77.281,VALID,586.068,VALID,23.171,VALID,290.0,VALID,0.293,
2018-07-28, 09:11:06,VALID,918.533,VALID,0.0,VALID,75.914,VALID,585.347,VALID,23.227,VALID,236.0,VALID,0.357,
2018-07-28, 09:12:06,VALID,918.53,VALID,0.0,VALID,75.155,VALID,618.742,VALID,23.245,VALID,223.0,VALID,0.205,
2018-07-28, 09:13:06,VALID,918.541,VALID,0.0,VALID,75.928,VALID,592.407,VALID,23.492,VALID,272.0,VALID,0.835,
2018-07-28, 09:14:06,VALID,918.551,VALID,0.0,VALID,75.026,VALID,598.331,VALID,23.352,VALID,250.0,VALID,0.779,
2018-07-28, 09:15:06,VALID,918.57,VALID,0.0,VALID,75.595,VALID,546.575,VALID,23.153,VALID,263.0,VALID,0.347,
2018-07-28, 09:16:06,VALID,918.564,VALID,0.0,VALID,75.733,VALID,583.473,VALID,23.133,VALID,233.0,VALID,0.675,
2018-07-28, 09:17:06,VALID,918.576,VALID,0.0,VALID,76.004,VALID,609.794,VALID,22.96,VALID,239.0,VALID,0.829,
2018-07-28, 09:18:06,VALID,918.571,VALID,0.0,VALID,76.996,VALID,621.037,VALID,22.761,VALID,240.0,VALID,0.948,
2018-07-28, 09:19:06,VALID,918.589,VALID,0.0,VALID,78.4,VALID,596.672,VALID,22.711,VALID,250.0,VALID,0.728,
2018-07-28, 09:20:06,VALID,918.597,VALID,0.0,VALID,78.828,VALID,593.914,VALID,22.753,VALID,234.0,VALID,0.217,
2018-07-28, 09:21:06,VALID,918.597,VALID,0.0,VALID,78.352,VALID,611.402,VALID,22.887,VALID,256.0,VALID,0.572,
2018-07-28, 09:22:06,VALID,918.609,VALID,0.0,VALID,78.086,VALID,648.94,VALID,22.908,VALID,236.0,VALID,0.556,
2018-07-28, 09:23:06,VALID,918.619,VALID,0.0,VALID,78.261,VALID,656.587,VALID,22.841,VALID,239.0,VALID,0.588,
2018-07-28, 09:24:06,VALID,918.628,VALID,0.0,VALID,77.933,VALID,661.424,VALID,22.865,VALID,237.0,VALID,0.603,
2018-07-28, 09:25:06,VALID,918.627,VALID,0.0,VALID,77.095,VALID,668.136,VALID,22.924,VALID,230.0,VALID,0.271,
2018-07-28, 09:26:06,VALID,918.647,VALID,0.0,VALID,78.21,VALID,667.054,VALID,23.089,VALID,256.0,VALID,0.771,
2018-07-28, 09:27:06,VALID,918.662,VALID,0.0,VALID,76.348,VALID,657.204,VALID,23.15,VALID,234.0,VALID,0.583,
2018-07-28, 09:28:06,VALID,918.669,VALID,0.0,VALID,76.094,VALID,659.85,VALID,23.08,VALID,236.0,VALID,0.49,
2018-07-28, 09:29:06,VALID,918.688,VALID,0.0,VALID,77.004,VALID,574.255,VALID,23.264,VALID,307.0,VALID,0.427,
2018-07-28, 09:30:06,VALID,918.688,VALID,0.0,VALID,76.506,VALID,256.016,VALID,23.535,VALID,281.0,VALID,0.76,
2018-07-28, 09:31:06,VALID,918.691,VALID,0.0,VALID,75.943,VALID,207.993,VALID,23.367,VALID,235.0,VALID,0.457,
2018-07-28, 09:32:06,VALID,918.691,VALID,0.0,VALID,77.852,VALID,177.631,VALID,23.233,VALID,266.0,VALID,0.491,
2018-07-28, 09:33:06,VALID,918.672,VALID,0.0,VALID,78.225,VALID,153.682,VALID,23.262,VALID,260.0,VALID,0.057,
2018-07-28, 09:34:06,VALID,918.68,VALID,0.0,VALID,78.387,VALID,150.153,VALID,23.264,VALID,210.0,VALID,0.325,
2018-07-28, 09:35:06,VALID,918.679,VALID,0.0,VALID,76.681,VALID,154.254,VALID,23.123,VALID,203.0,VALID,0.102,
2018-07-28, 09:36:06,VALID,918.673,VALID,0.0,VALID,77.241,VALID,173.96,VALID,23.014,VALID,231.0,VALID,0.134,
2018-07-28, 09:37:06,VALID,918.677,VALID,0.0,VALID,77.767,VALID,202.528,VALID,22.996,VALID,238.0,VALID,0.032,
2018-07-28, 09:38:06,VALID,918.674,VALID,0.0,VALID,77.944,VALID,218.024,VALID,23.09,VALID,281.0,VALID,0.135,
2018-07-28, 09:39:06,VALID,918.683,VALID,0.0,VALID,77.455,VALID,227.286,VALID,23.132,VALID,281.0,VALID,0.039,
2018-07-28, 09:40:06,VALID,918.675,VALID,0.0,VALID,77.39,VALID,296.29,VALID,23.192,VALID,223.0,VALID,0.136,
2018-07-28, 09:41:06,VALID,918.659,VALID,0.0,VALID,77.249,VALID,538.837,VALID,23.113,VALID,225.0,VALID,0.159,
2018-07-28, 09:42:06,VALID,918.641,VALID,0.0,VALID,77.466,VALID,670.472,VALID,23.113,VALID,242.0,VALID,0.077,
2018-07-28, 09:43:06,VALID,918.62,VALID,0.0,VALID,78.123,VALID,699.708,VALID,23.306,VALID,277.0,VALID,0.571,
2018-07-28, 09:44:06,VALID,918.601,VALID,0.0,VALID,77.569,VALID,469.045,VALID,23.406,VALID,261.0,VALID,0.456,
2018-07-28, 09:45:06,VALID,918.59,VALID,0.0,VALID,78.19,VALID,199.579,VALID,23.467,VALID,286.0,VALID,0.187,
2018-07-28, 09:46:06,VALID,918.591,VALID,0.0,VALID,77.637,VALID,589.162,VALID,23.668,VALID,290.0,VALID,0.269,
2018-07-28, 09:47:06,VALID,918.587,VALID,0.0,VALID,77.444,VALID,743.541,VALID,23.831,VALID,305.0,VALID,0.451,
2018-07-28, 09:48:06,VALID,918.593,VALID,0.0,VALID,75.81,VALID,656.325,VALID,23.889,VALID,255.0,VALID,0.191,
2018-07-28, 09:49:06,VALID,918.595,VALID,0.0,VALID,75.845,VALID,556.955,VALID,23.924,VALID,270.0,VALID,0.065,
2018-07-28, 09:50:06,VALID,918.602,VALID,0.0,VALID,74.963,VALID,602.636,VALID,24.275,VALID,296.0,VALID,0.258,
2018-07-28, 09:51:06,VALID,918.601,VALID,0.0,VALID,74.081,VALID,245.785,VALID,24.339,VALID,285.0,VALID,0.516,
2018-07-28, 09:52:06,VALID,918.588,VALID,0.0,VALID,74.714,VALID,204.848,VALID,24.15,VALID,279.0,VALID,0.407,
2018-07-28, 09:53:06,VALID,918.581,VALID,0.0,VALID,75.693,VALID,232.569,VALID,24.107,VALID,281.0,VALID,0.134,
2018-07-28, 09:54:06,VALID,918.562,VALID,0.0,VALID,74.566,VALID,458.107,VALID,23.998,VALID,275.0,VALID,0.738,
2018-07-28, 09:55:06,VALID,918.557,VALID,0.0,VALID,75.708,VALID,755.507,VALID,23.568,VALID,268.0,VALID,0.335,
2018-07-28, 09:56:06,VALID,918.529,VALID,0.0,VALID,77.604,VALID,562.695,VALID,23.494,VALID,279.0,VALID,0.525,
2018-07-28, 09:57:06,VALID,918.519,VALID,0.0,VALID,76.796,VALID,327.601,VALID,23.465,VALID,278.0,VALID,0.687,
2018-07-28, 09:58:06,VALID,918.516,VALID,0.0,VALID,77.09,VALID,484.411,VALID,23.415,VALID,287.0,VALID,0.48,
2018-07-28, 09:59:06,VALID,918.512,VALID,0.0,VALID,77.324,VALID,626.582,VALID,23.492,VALID,291.0,VALID,0.634,
2018-07-28, 10:00:06,VALID,918.514,VALID,0.0,VALID,76.643,VALID,705.891,VALID,23.666,VALID,294.0,VALID,0.241,
2018-07-28, 10:01:06,VALID,918.507,VALID,0.0,VALID,77.004,VALID,478.406,VALID,23.834,VALID,284.0,VALID,1.226,
2018-07-28, 10:02:06,VALID,918.505,VALID,0.0,VALID,76.739,VALID,516.763,VALID,23.627,VALID,299.0,VALID,0.774,
2018-07-28, 10:03:06,VALID,918.489,VALID,0.0,VALID,77.462,VALID,340.337,VALID,23.723,VALID,307.0,VALID,0.28,
2018-07-28, 10:04:06,VALID,918.488,VALID,0.0,VALID,76.869,VALID,320.703,VALID,23.734,VALID,227.0,VALID,0.983,
2018-07-28, 10:05:06,VALID,918.487,VALID,0.0,VALID,78.326,VALID,589.862,VALID,23.526,VALID,288.0,VALID,0.387,
2018-07-28, 10:06:06,VALID,918.492,VALID,0.0,VALID,78.161,VALID,664.127,VALID,23.615,VALID,229.0,VALID,0.882,
2018-07-28, 10:07:06,VALID,918.475,VALID,0.0,VALID,77.624,VALID,602.257,VALID,23.525,VALID,242.0,VALID,0.73,
2018-07-28, 10:08:06,VALID,918.468,VALID,0.0,VALID,78.012,VALID,634.898,VALID,23.536,VALID,269.0,VALID,0.167,
2018-07-28, 10:09:06,VALID,918.475,VALID,0.0,VALID,78.967,VALID,718.85,VALID,23.818,VALID,296.0,VALID,0.223,
2018-07-28, 10:10:06,VALID,918.476,VALID,0.0,VALID,76.522,VALID,657.812,VALID,24.132,VALID,300.0,VALID,0.667,
2018-07-28, 10:11:06,VALID,918.477,VALID,0.0,VALID,76.263,VALID,620.327,VALID,24.443,VALID,271.0,VALID,0.303,
2018-07-28, 10:12:06,VALID,918.479,VALID,0.0,VALID,73.835,VALID,407.451,VALID,24.517,VALID,272.0,VALID,0.294,
2018-07-28, 10:13:06,VALID,918.488,VALID,0.0,VALID,74.652,VALID,530.994,VALID,24.455,VALID,331.0,VALID,0.296,
2018-07-28, 10:14:06,VALID,918.495,VALID,0.0,VALID,74.588,VALID,695.672,VALID,24.518,VALID,21.0,VALID,0.117,
2018-07-28, 10:15:06,VALID,918.495,VALID,0.0,VALID,75.125,VALID,786.992,VALID,24.768,VALID,340.0,VALID,0.273,
2018-07-28, 10:16:06,VALID,918.503,VALID,0.0,VALID,73.808,VALID,775.62,VALID,24.933,VALID,278.0,VALID,0.696,
2018-07-28, 10:17:06,VALID,918.508,VALID,0.0,VALID,73.118,VALID,769.352,VALID,24.793,VALID,279.0,VALID,0.944,
2018-07-28, 10:18:06,VALID,918.502,VALID,0.0,VALID,73.325,VALID,767.236,VALID,24.69,VALID,310.0,VALID,0.329,
2018-07-28, 10:19:06,VALID,918.504,VALID,0.0,VALID,73.016,VALID,780.86,VALID,24.817,VALID,342.0,VALID,0.295,
2018-07-28, 10:20:06,VALID,918.514,VALID,0.0,VALID,72.826,VALID,784.094,VALID,24.958,VALID,285.0,VALID,0.243,
2018-07-28, 10:21:06,VALID,918.513,VALID,0.0,VALID,71.286,VALID,788.626,VALID,25.126,VALID,318.0,VALID,0.116,
2018-07-28, 10:22:06,VALID,918.517,VALID,0.0,VALID,70.472,VALID,791.493,VALID,25.286,VALID,33.0,VALID,0.378,
2018-07-28, 10:23:06,VALID,918.528,VALID,0.0,VALID,69.037,VALID,790.795,VALID,25.503,VALID,352.0,VALID,0.959,
2018-07-28, 10:24:06,VALID,918.541,VALID,0.0,VALID,69.427,VALID,777.728,VALID,25.355,VALID,354.0,VALID,1.162,
2018-07-28, 10:25:06,VALID,918.551,VALID,0.0,VALID,72.306,VALID,762.381,VALID,25.42,VALID,14.0,VALID,1.157,
2018-07-28, 10:26:06,VALID,918.572,VALID,0.0,VALID,70.835,VALID,749.469,VALID,25.553,VALID,353.0,VALID,0.568,
2018-07-28, 10:27:06,VALID,918.568,VALID,0.0,VALID,71.176,VALID,765.541,VALID,25.719,VALID,3.0,VALID,0.591,
2018-07-28, 10:28:06,VALID,918.566,VALID,0.0,VALID,68.276,VALID,774.223,VALID,25.797,VALID,10.0,VALID,1.241,
2018-07-28, 10:29:06,VALID,918.566,VALID,0.0,VALID,70.781,VALID,790.335,VALID,25.73,VALID,4.0,VALID,1.039,
2018-07-28, 10:30:06,VALID,918.566,VALID,0.0,VALID,67.958,VALID,756.451,VALID,25.717,VALID,335.0,VALID,0.437,
2018-07-28, 10:31:06,VALID,918.565,VALID,0.0,VALID,66.404,VALID,777.546,VALID,25.609,VALID,341.0,VALID,0.423,
2018-07-28, 10:32:06,VALID,918.571,VALID,0.0,VALID,67.922,VALID,775.887,VALID,25.706,VALID,17.0,VALID,0.327,
2018-07-28, 10:33:06,VALID,918.558,VALID,0.0,VALID,67.881,VALID,779.944,VALID,25.843,VALID,60.0,VALID,0.568,
2018-07-28, 10:34:06,VALID,918.564,VALID,0.0,VALID,67.22,VALID,779.034,VALID,25.891,VALID,337.0,VALID,0.642,
2018-07-28, 10:35:06,VALID,918.574,VALID,0.0,VALID,66.055,VALID,791.044,VALID,25.726,VALID,323.0,VALID,0.709,